Home > Weather > Coesfeld > Past weeks

Flag for Germany Past Weather in Coesfeld, North Rhine-Westphalia, Germany — Yesterday and Last 2 Weeks

Now
70 °F

Partly sunny.


Feels Like: 70 °F
Forecast: 60 / 70 °F
Wind: 8 mph from Southwest

Location: Rheine-Bentlage

Current Time: Jul 27, 2016 at 11:45:05 AM

Latest Report: Jul 27, 2016 at 10:20 AM


Visibility: N/A

Pressure: 30.01 "Hg

Humidity: 69%

Dew Point: 59 °F

Location of CoesfeldLocation

Past Weather in Coesfeld — Graph

°F

Coesfeld Temperature Yesterday

Maximum temperature yesterday: 77 °F (at 4:20 PM)
Minimum temperature yesterday: 55 °F (at 5:20 AM)
Average temperature yesterday: 67 °F

High & Low Weather Summary for the Past Weeks

 TemperatureHumidityPressure
High91 °F (Jul 20, 4:20 PM)100% (Jul 13, 6:20 AM)30.24 "Hg (Jul 13, 6:20 AM)
Low48 °F (Jul 14, 4:20 AM)30% (Jul 20, 4:20 PM)29.83 "Hg (Jul 20, 6:20 PM)
Average67 °F76%30.07 "Hg
* Reported Jul 12 10:20 AM — Jul 27 10:20 AM, Coesfeld, Weather by CustomWeather, © 2016

Note: Actual official high and low records may vary slightly from our data, if they occured in-between our weather recording intervals... More about our weather records

Advertising

Coesfeld Weather History for the Previous 24 Hours

Scroll right to see more
 ConditionsComfort  
Time TempWeatherWind HumidityBarometerVisibility
10:20 AM
Wed, Jul 27
70 °FPartly sunny.8 mph69%30.01 "HgN/A
9:20 AM66 °FScattered clouds.6 mph78%30.01 "HgN/A
8:20 AM64 °FPartly sunny.6 mph83%30.01 "HgN/A
7:20 AM63 °FBroken clouds.2 mph88%30.01 "HgN/A
6:20 AM63 °FPartly cloudy.2 mph88%30.04 "HgN/A
5:20 AM61 °FCool.3 mph94%30.04 "HgN/A
4:20 AM61 °FCool.1 mph94%30.07 "HgN/A
3:20 AM61 °FCool.1 mph94%30.07 "HgN/A
2:20 AM63 °FMild.No wind88%30.07 "HgN/A
1:20 AM64 °FMild.1 mph83%30.09 "HgN/A
12:20 AM64 °FMild.1 mph83%30.09 "HgN/A
11:20 PM
Tue, Jul 26
64 °FMild.1 mph83%30.09 "HgN/A
10:20 PM68 °FMild.2 mph73%30.09 "HgN/A
9:20 PM70 °FMild.5 mph64%30.09 "HgN/A
8:20 PM72 °FMild.6 mph57%30.09 "HgN/A
7:20 PM73 °FMild.6 mph53%30.09 "HgN/A
6:20 PM73 °FMild.6 mph53%30.09 "HgN/A
5:20 PM75 °FMild.6 mph47%30.09 "HgN/A
4:20 PM77 °FWarm.3 mph42%30.12 "HgN/A
3:20 PM75 °FPartly sunny.5 mph44%30.12 "HgN/A
2:20 PM73 °FScattered clouds.6 mph50%30.12 "HgN/A
1:20 PM73 °FPartly sunny.5 mph47%30.12 "HgN/A
12:20 PM73 °FPartly sunny.2 mph50%30.15 "HgN/A
11:20 AM70 °FScattered clouds.2 mph57%30.15 "HgN/A
Weather by CustomWeather, © 2016

See weather overviewHow to use our weather pages